Location: Cudrefin
(46.9576°N, 7.0204°E)
Time: 13:41:16
(UTC+00:00)

Daily predictions for brighter satellites

Satellite Brightness Start Highest point End
(mag) Time Altitude Azimuth Time Altitude Azimuth Time Altitude Azimuth
Cosmos 1980 3.8 18:17:27 10° SSW 18:23:09 89° ESE 18:28:53 10° NNE
SL-8 R/B 3.9 18:19:02 10° W 18:23:49 76° N 18:28:36 10° E
STARLINK-1109 3.6 18:19:51 10° WNW 18:23:57 78° NNE 18:28:01 10° ESE
ERBS 3.6 18:22:16 10° WSW 18:25:29 41° NNW 18:28:43 10° NE
STARLINK-1246 3.8 18:21:41 10° SW 18:25:40 53° SE 18:29:41 10° ENE
CZ-2D R/B 4.1 18:23:45 10° S 18:27:30 55° W 18:31:15 10° NNW
Cosmos 1766 3.3 18:24:35 10° S 18:28:32 67° E 18:32:31 10° NNE
STARLINK-1091 3.6 18:24:40 10° WNW 18:28:45 83° NNE 18:32:50 10° ESE
STARLINK-1097 4.5 18:25:11 10° WNW 18:29:08 41° NNE 18:33:04 10° E
Orbus 7S? 3.8 18:26:31 10° WNW 18:29:29 37° SW 18:31:45 10° SSE
STARLINK-67 3.3 18:28:33 10° W 18:31:03 46° NNW 18:33:34 10° NE
STARLINK-1066 3.2 18:27:58 10° WNW 18:31:06 62° SSW 18:34:13 10° SE
STARLINK-1201 3.0 18:28:12 10° WSW 18:31:28 88° SSE 18:34:45 10° ENE
STARLINK-1081 3.2 18:28:27 10° WNW 18:31:32 62° SW 18:34:37 10° SE
ADEOS Rocket 3.3 18:24:50 10° NNE 18:31:43 83° WNW 18:37:49 10° SSW
STARLINK-1070 3.2 18:28:54 10° WNW 18:32:00 61° SSW 18:35:04 10° SE
USA 234 3.9 18:26:23 10° ENE 18:32:12 33° SE 18:38:00 10° SSW
STARLINK-1069 3.3 18:29:20 10° WNW 18:32:27 61° SSW 18:35:33 10° SE
STARLINK-1224 3.7 18:28:52 10° SW 18:32:52 60° SE 18:36:53 10° ENE
STARLINK-1085 3.3 18:29:46 10° WNW 18:32:54 60° SW 18:36:00 10° SE
STARLINK-1086 3.3 18:30:16 10° WNW 18:33:21 59° SW 18:36:26 10° SE
STARLINK-1095 3.3 18:30:43 10° WNW 18:33:48 59° SW 18:36:52 10° SE
Cosmos 1626 2.7 18:30:24 10° N 18:33:52 36° ENE 18:37:18 10° SE
STARLINK-1099 4.4 18:30:11 10° WNW 18:34:09 42° NNE 18:38:06 10° E
STARLINK-1077 3.3 18:31:10 10° WNW 18:34:14 58° SW 18:37:19 10° SE
STARLINK-1203 3.5 18:30:33 10° SW 18:34:29 66° SSE 18:38:27 10° ENE
STARLINK-1075 3.3 18:31:37 10° WNW 18:34:41 58° SW 18:37:45 10° SE
STARLINK-1093 3.4 18:32:01 10° WNW 18:35:08 58° SW 18:38:14 10° SE
H-2A R/B 2.3 18:30:08 10° SE 18:35:16 52° ENE 18:40:18 10° N
STARLINK-1074 3.4 18:32:29 10° WNW 18:35:35 57° SW 18:38:42 10° SE
STARLINK-1087 3.4 18:32:58 10° WNW 18:36:02 56° SW 18:39:05 10° SE
HJ-1C 3.4 18:32:58 10° SSE 18:36:18 89° SSW 18:39:42 10° NNW
STARLINK-1088 3.4 18:33:25 10° WNW 18:36:30 56° SW 18:39:33 10° SE
STARLINK-1115 3.4 18:33:51 10° WNW 18:36:57 55° SW 18:40:02 10° SE
SL-16 R/B 2.5 18:31:52 10° S 18:37:10 43° ESE 18:42:30 10° NE
STARLINK-1076 3.4 18:34:18 10° WNW 18:37:24 55° SW 18:40:29 10° SE
STARLINK-1225 3.6 18:33:28 10° SW 18:37:30 64° SE 18:41:33 10° ENE
CSL-04 Rocket 4.3 18:32:35 10° S 18:37:49 58° WSW 18:43:03 10° NNW
STARLINK-1092 3.4 18:34:44 10° WNW 18:37:50 54° SW 18:40:55 10° SE
STARLINK-1080 3.4 18:35:14 10° WNW 18:38:17 54° SW 18:41:21 10° SE
STARLINK-1090 3.4 18:35:41 10° WNW 18:38:44 53° SW 18:41:47 10° SE
STARLINK-1072 3.6 18:34:58 10° WNW 18:39:02 86° SSW 18:43:04 10° ESE
STARLINK-1104 4.4 18:35:11 10° WNW 18:39:09 43° NNE 18:43:08 10° E
STARLINK-1089 3.5 18:36:07 10° WNW 18:39:11 53° SW 18:42:13 10° SE
Cosmos 2333 Rocket 4.2 18:34:32 10° WSW 18:39:34 32° NW 18:44:37 10° NNE
STARLINK-1107 3.5 18:36:36 10° WNW 18:39:39 52° SW 18:42:41 10° SE
SL-08 RB Rocket 4.5 18:35:56 10° SE 18:39:57 33° ENE 18:44:03 10° N
Resurs 01 Rocket 3.3 18:39:05 10° E 18:41:54 17° ENE 18:44:44 10° NNE
STARLINK-1230 3.6 18:38:11 10° SW 18:42:14 69° SSE 18:46:18 10° ENE
STARLINK-1096 3.6 18:39:20 10° WNW 18:43:23 81° SSW 18:47:19 11° SE
STARLINK-1144 4.3 18:40:10 10° WNW 18:44:10 45° NNE 18:47:59 11° E
STARLINK-1233 3.1 18:41:47 10° WSW 18:44:54 71° NNW 18:48:03 10° ENE
STARLINK-1212 3.1 18:42:15 10° WSW 18:45:21 70° NNW 18:48:30 10° ENE
STARLINK-1105 3.1 18:42:41 10° WSW 18:45:48 70° NNW 18:48:56 10° ENE
FREGAT/IRIS 2.6 18:43:18 10° SSE 18:45:55 45° ENE 18:48:33 10° N
STARLINK-1206 3.1 18:43:11 10° WSW 18:46:17 69° NNW 18:49:24 10° ENE
STARLINK-1247 3.1 18:43:37 10° WSW 18:46:43 68° NNW 18:49:50 10° ENE
STARLINK-1243 3.5 18:42:59 10° SW 18:47:03 74° SSE 18:51:08 10° ENE
STARLINK-1227 3.2 18:44:02 10° WSW 18:47:09 68° NNW 18:50:18 10° ENE
Cosmos 1302 Rocket 4.2 18:42:21 10° NNW 18:47:34 56° ENE 18:52:45 10° SE
STARLINK-1218 3.2 18:44:31 10° WSW 18:47:37 67° NNW 18:50:45 10° ENE
Abrixas rocket 3.7 18:45:55 10° S 18:47:55 17° SE 18:49:07 14° ESE
STARLINK-1226 3.2 18:44:58 10° WSW 18:48:04 67° NNW 18:51:11 10° ENE
STARLINK-1079 3.7 18:44:23 10° WNW 18:48:25 76° SSW 18:52:11 12° SE
STARLINK-1254 3.2 18:45:24 10° WSW 18:48:30 67° NNW 18:51:39 10° ENE
STARLINK-1215 3.2 18:45:53 10° WSW 18:48:59 66° NNW 18:52:05 10° ENE
STARLINK-1103 4.3 18:45:08 10° WNW 18:49:09 46° NNE 18:52:45 12° E
STARLINK-1231 3.2 18:46:19 10° WSW 18:49:24 65° NNW 18:52:32 10° ENE
Cosmos 304 Rocket 4.0 18:45:28 10° NNW 18:50:16 75° WSW 18:55:02 10° SSE
STARLINK-1232 3.2 18:47:14 10° WSW 18:50:20 64° NNW 18:53:27 10° ENE
Cosmos 1953 3.8 18:47:44 10° SE 18:50:26 18° E 18:53:09 10° NE
STARLINK-1217 3.2 18:47:41 10° WSW 18:50:47 64° NNW 18:53:54 10° ENE
Cosmos 1709 Rocket 4.0 18:44:36 10° N 18:50:48 64° ENE 18:56:52 10° SSE
SeaSat 1 4.0 18:46:28 10° NNE 18:51:04 40° NW 18:55:39 10° WSW
STARLINK-1208 3.3 18:48:06 10° WSW 18:51:12 64° NNW 18:54:21 10° ENE
STARLINK-1229 3.3 18:48:35 10° WSW 18:51:40 63° NNW 18:54:46 10° ENE
STARLINK-1236 3.5 18:47:45 10° SW 18:51:50 79° SSE 18:55:55 10° ENE
STARLINK-1271 3.3 18:49:02 10° WSW 18:52:08 63° NNW 18:55:14 10° ENE
STARLINK-1270 3.3 18:49:30 10° WSW 18:52:36 62° NNW 18:55:42 10° ENE
STARLINK-1116 3.7 18:48:49 10° WNW 18:52:51 71° SSW 18:56:26 13° SE
STARLINK-1154 3.3 18:49:57 10° WSW 18:53:02 62° NNW 18:56:08 10° ENE
STARLINK-1197 3.3 18:50:51 10° WSW 18:53:57 61° NNW 18:57:03 10° ENE
Cosmos 1269 Rocket 4.0 18:48:47 10° S 18:54:02 70° ESE 18:59:19 10° NNE
STARLINK-1101 4.2 18:50:08 10° WNW 18:54:09 48° NNE 18:57:32 14° E
STARLINK-1189 3.3 18:51:18 10° WSW 18:54:24 60° NNW 18:57:30 10° ENE
MONITOR-E 3.8 18:51:50 10° SSE 18:54:25 56° ENE 18:57:02 10° N
STARLINK-1187 3.5 18:52:11 10° WSW 18:55:15 55° NNW 18:58:21 10° NE
STARLINK-1188 3.4 18:52:13 10° WSW 18:55:19 60° NNW 18:58:23 10° ENE
STARLINK-1198 3.4 18:52:14 10° WSW 18:55:19 60° NNW 18:58:24 10° ENE
STARLINK-1235 3.7 18:52:55 10° W 18:55:59 50° NNW 18:59:04 10° NE
CZ-4C R/B 4.5 18:51:54 10° WNW 18:56:19 22° NNW 19:01:22 10° NNE
STARLINK-1199 3.4 18:54:09 10° WSW 18:57:16 58° NNW 19:00:23 10° ENE
STARLINK-1191 3.4 18:54:37 10° WSW 18:57:42 58° NNW 19:00:50 10° ENE
STARLINK-1210 3.4 18:55:04 10° WSW 18:58:10 57° NNW 19:01:17 10° ENE
STARLINK-1221 3.5 18:55:31 10° WSW 18:58:37 57° NNW 19:01:44 10° NE
STARLINK-1219 3.5 18:55:59 10° WSW 18:59:04 57° NNW 19:02:12 10° NE
STARLINK-1102 4.1 18:55:06 10° WNW 18:59:09 50° NNE 19:02:19 16° E
STARLINK-1222 3.5 18:56:26 10° WSW 18:59:31 56° NNW 19:02:38 10° NE
STARLINK-1211 3.5 18:56:53 10° WSW 18:59:58 56° NNW 19:03:05 10° NE
ISS -2.9 18:57:01 10° WNW 19:00:14 41° NNE 19:02:41 15° E
STARLINK-1214 3.5 18:57:20 10° WSW 19:00:25 55° NNW 19:03:31 10° NE
STARLINK-1245 3.5 18:57:49 10° WSW 19:00:52 55° NNW 19:03:57 10° NE
STARLINK-1238 3.5 18:58:12 10° WSW 19:01:17 55° NNW 19:04:24 10° NE
STARLINK-1269 3.5 18:57:34 10° WSW 19:01:39 90° NNE 19:05:45 10° ENE
Cosmos 1455 Rocket 3.2 18:57:30 10° SSW 19:01:50 79° W 19:06:13 10° N
Cosmos 2297 3.7 18:56:18 10° NNW 19:02:00 89° ENE 19:07:43 10° SSE
STARLINK-1094 3.9 18:58:05 10° WNW 19:02:05 61° SW 19:05:21 15° SE
STARLINK-1205 3.5 18:59:08 10° WSW 19:02:12 54° NNW 19:05:17 10° NE
BREEZE-M DEB (TANK) 4.3 18:53:57 10° W 19:02:40 65° N 19:05:20 15° E
STARLINK-1204 3.5 18:59:37 10° WSW 19:02:41 53° NNW 19:05:45 10° NE
Cosmos 2084 Rocket 4.3 18:59:48 10° NNW 19:04:01 39° NE 19:06:58 18° ESE
STARLINK-1111 4.1 19:00:05 10° WNW 19:04:09 52° NNE 19:07:06 17° E
STARLINK-1200 3.6 19:02:22 10° WSW 19:06:28 85° NNW 19:10:34 10° ENE
Cosmos 2237 Rocket 3.3 19:01:17 10° SW 19:06:42 48° WNW 19:12:11 10° NNE
STARLINK-1117 4.0 19:02:57 10° WNW 19:06:56 57° SW 19:10:00 16° SE
CZ-2C R/B 3.4 19:04:42 10° NE 19:09:09 28° E 19:13:35 10° SSE
STARLINK-1073 4.0 19:05:04 10° WNW 19:09:09 55° NNE 19:11:53 19° E
Cosmos 1626 Rocket 3.5 19:05:15 10° N 19:09:40 68° E 19:14:00 10° SSE
STARLINK-1192 3.6 19:07:08 10° WSW 19:11:13 80° NNW 19:15:19 10° ENE
STARLINK-1078 4.1 19:07:24 10° WNW 19:11:21 53° SW 19:14:17 17° SE
Cosmos 2278 Rocket 4.5 19:08:07 10° NW 19:12:37 24° WSW 19:17:04 10° SSW
STARLINK-1121 3.9 19:10:02 10° WNW 19:14:08 57° NNE 19:16:39 22° E
ARGOS 3.2 19:10:14 10° SSE 19:15:39 86° WSW 19:21:05 10° NNW
Cosmos 292 Rocket 4.3 19:11:16 10° N 19:15:49 41° ENE 19:18:32 21° ESE
STARLINK-1244 3.7 19:12:04 10° WSW 19:16:09 76° NNW 19:20:08 11° ENE
STARLINK-1108 4.2 19:12:16 10° WNW 19:16:12 49° SW 19:18:58 18° SSE
Cosmos 1602 Rocket 3.6 19:13:13 10° N 19:17:41 64° E 19:21:45 12° SSE
STARLINK-1106 3.9 19:15:00 10° WNW 19:19:06 60° NNE 19:21:25 24° E
STARLINK-1138 3.8 19:16:40 10° WSW 19:20:45 72° NNW 19:24:34 12° ENE
STARLINK-1071 4.3 19:16:57 10° WNW 19:20:51 45° SW 19:23:26 19° SSE
STARLINK-1234 4.2 19:19:04 10° W 19:21:50 34° NNW 19:24:04 14° NE
USA 186 2.7 19:19:37 10° S 19:22:58 51° W 19:26:18 10° NNW
MOS 1 Rocket 4.0 19:18:41 10° NNE 19:23:36 40° E 19:28:40 10° SSE
STARLINK-1112 3.8 19:20:00 10° WNW 19:24:08 64° NNE 19:26:14 27° E
STARLINK-1110 4.4 19:21:26 10° WNW 19:25:17 42° SW 19:27:43 20° SSE
STARLINK-1143 3.9 19:21:35 10° WSW 19:25:39 68° NNW 19:29:16 13° ENE
MetOp-A 4.1 19:21:25 12° SSE 19:26:20 69° ENE 19:31:41 10° N
CZ-2C R/B 3.4 19:23:06 10° S 19:28:07 62° WSW 19:32:56 10° NNW
IRIDIUM 114 4.3 19:23:06 10° N 19:28:18 60° E 19:32:51 13° SSE
STARLINK-1128 3.7 19:24:58 10° WNW 19:29:07 68° NNE 19:31:01 30° E
Cosmos 1544 Rocket 4.3 19:25:09 10° SSW 19:29:27 55° WNW 19:33:50 10° N
Cosmos 1470 2.8 19:27:34 10° SSW 19:31:26 78° W 19:35:21 10° N
Cosmos 1437 4.0 19:29:18 10° NNE 19:31:25 24° NE 19:31:25 24° NE
STARLINK-1241 4.0 19:30:00 10° WSW 19:34:01 61° NNW 19:37:13 15° NE
STARLINK-1113 3.6 19:29:57 10° WNW 19:34:06 71° NNE 19:35:47 34° ESE
SPOT 3 Rocket 3.5 19:29:48 11° SSE 19:34:48 88° ENE 19:40:03 10° NNW
Cosmos 1825 Rocket 4.0 19:32:30 10° N 19:36:42 40° ENE 19:37:53 33° ESE
IRIDIUM 103 4.2 19:32:15 10° N 19:37:30 73° E 19:42:00 14° S
STARLINK-1239 4.1 19:34:56 10° WSW 19:38:56 58° NNW 19:41:57 17° NE
STARLINK-1119 3.6 19:34:55 10° WNW 19:39:05 76° NNE 19:40:34 38° ESE
Cosmos 2369 Rocket 2.3 19:34:45 10° NNW 19:40:25 61° ENE 19:43:14 29° SE
SJ-6B 3.8 19:37:07 10° S 19:41:04 49° W 19:45:06 10° NNW
Cosmos 1726 2.4 19:42:57 44° ESE 19:43:10 45° E 19:46:46 10° NNE
STARLINK-1240 4.2 19:39:41 10° W 19:43:40 55° NNW 19:46:29 18° NE
STARLINK-1114 3.6 19:39:57 10° WNW 19:44:06 80° NNE 19:45:24 43° ESE
Cosmos 1758 3.9 19:41:23 10° SSW 19:45:26 61° WNW 19:49:31 10° N
Aureole 2 Rocket 2.4 19:42:02 10° NNW 19:45:32 61° ENE 19:45:56 55° ESE
Cosmos 2263 4.5 19:40:55 10° NNW 19:46:26 51° ENE 19:48:35 33° ESE
Cosmos 1758 Rocket 3.5 19:42:12 10° N 19:46:32 59° ENE 19:47:54 39° SE
NOSS 3-3 (A) 4.1 19:42:53 10° S 19:48:24 46° ESE 19:54:33 10° NE
STARLINK-1216 4.2 19:44:28 10° W 19:48:26 53° NNW 19:51:02 20° NE
NOSS 3-3 (C) 4.1 19:43:00 10° S 19:48:30 45° ESE 19:54:39 10° NE
STARLINK-1130 (DARKSAT) 3.5 19:44:54 10° WNW 19:49:04 85° NNE 19:50:10 48° ESE
CZ-2C R/B 3.9 19:44:32 10° NNE 19:49:20 79° WNW 19:54:01 10° SSW
Cosmos 1953 Rocket 4.0 19:48:46 10° N 19:52:59 41° ENE 19:53:22 40° E
STARLINK-1237 4.3 19:49:16 10° W 19:53:13 51° NNW 19:55:38 22° NE
Terra 3.7 19:53:53 15° ENE 19:53:53 15° ENE 19:56:25 10° NNE
STARLINK-1084 3.5 19:49:52 10° WNW 19:54:02 90° SSW 19:54:56 54° ESE
Cosmos 2184 Rocket 3.9 19:49:19 10° N 19:55:41 76° E 19:59:37 24° SSE
IRIDIUM 106 4.4 19:50:32 10° N 19:55:46 80° W 20:00:12 15° S
Spot 2 Rocket 3.9 19:55:41 39° ESE 19:56:56 47° ENE 20:01:50 10° N
STARLINK-1202 4.4 19:54:02 10° W 19:57:59 49° NNW 20:00:11 23° NE
STARLINK-1098 3.5 19:54:52 10° WNW 19:59:01 85° SSW 19:59:43 60° SE
Cosmos 1606 Rocket 3.7 19:59:07 50° ESE 19:59:22 51° E 20:03:42 10° NNE
SPOT 1/Viking Rocket 4.3 20:00:50 33° E 20:01:30 35° ENE 20:06:12 10° N
Cosmos 1943 Rocket 2.2 19:56:17 10° NNW 20:01:49 75° WSW 20:04:34 31° SSE
Meteor 1-21 Rocket 4.3 19:56:38 10° NNW 20:02:12 72° W 20:06:08 20° S
Cosmos 1943 3.3 20:01:04 28° SSE 20:03:38 48° ESE 20:09:05 10° NE
STARLINK-1123 3.5 19:59:50 10° WNW 20:04:00 79° SSW 20:04:30 66° SSE
STARLINK-1246 4.5 20:01:16 10° W 20:05:15 46° NNW 20:07:11 26° NE
Meteor 2-10 4.0 20:00:44 11° S 20:05:48 81° E 20:11:22 10° NNE
SL-8 R/B 3.6 20:01:43 10° WNW 20:06:31 87° N 20:07:34 55° E
Resurs 1-3 4.2 20:05:32 23° S 20:08:03 54° W 20:12:21 10° NNW
STARLINK-1097 3.5 20:04:49 10° WNW 20:08:58 74° SSW 20:09:16 69° S
ATLAS 2AS CENTAUR R/B 3.3 20:04:02 10° NW 20:11:31 49° NE 20:14:22 34° E
STARLINK-1099 3.6 20:09:48 10° WNW 20:13:56 69° SW 20:14:04 68° SSW
H-2A R/B 4.2 20:10:46 10° SW 20:14:57 23° W 20:19:05 10° NW
USA 234 3.3 20:09:05 10° NE 20:15:39 83° NW 20:22:12 10° WSW
USA 245 4.0 20:15:17 54° ESE 20:16:08 62° ENE 20:21:54 10° N
Cosmos 2154 Rocket 3.9 20:10:25 10° N 20:16:47 72° E 20:18:59 43° SSE
Resurs 01 Rocket 2.0 20:16:28 38° SSW 20:17:56 61° W 20:22:19 10° NNW
DMSP B5D2-2 4.4 20:13:40 10° N 20:18:50 64° WNW 20:23:58 10° SSW
STARLINK-1104 3.7 20:14:48 10° WNW 20:18:51 64° SW 20:18:51 64° SW
Cosmos 1328 3.8 20:16:46 10° N 20:20:25 71° NNE 20:20:25 71° NNE
SL-16 R/B 3.8 20:16:14 10° WSW 20:21:23 35° NW 20:26:34 10° NNE
Cosmos 2228 2.9 20:22:39 81° NE 20:22:39 81° NE 20:26:50 10° N
Cosmos 967 Rocket 4.4 20:17:14 10° SSW 20:23:38 72° ESE 20:30:07 10° NE
STARLINK-1144 3.9 20:19:48 10° WNW 20:23:38 58° SW 20:23:38 58° SW
Cosmos 1953 3.6 20:23:07 12° SW 20:26:32 38° WNW 20:30:17 10° N
STARLINK-1103 4.1 20:24:46 10° WNW 20:28:25 52° WSW 20:28:25 52° WSW
Cosmos 962 Rocket 4.5 20:24:55 10° N 20:31:02 58° ENE 20:31:44 55° ESE
Nadezhda 1 Rocket 4.0 20:29:47 29° S 20:33:20 90° SE 20:39:46 10° N
STARLINK-1101 4.4 20:29:46 10° WNW 20:33:11 46° WSW 20:33:11 46° WSW
SL-8 Rocket 4.4 20:30:55 10° N 20:36:56 45° ENE 20:37:01 45° ENE
ISS -1.8 20:33:51 10° WNW 20:35:39 29° W 20:35:39 29° W
Cosmos 2058 Rocket 4.0 20:42:37 42° NNE 20:42:37 42° NNE 20:45:40 10° NNE
MetOp-B 4.3 20:40:10 51° SSW 20:41:21 67° WSW 20:46:43 10° NNW
Cosmos 1603 3.8 20:37:15 10° SW 20:42:52 72° WNW 20:48:30 10° NNE
SPOT 5 3.7 20:44:25 36° NNE 20:44:25 36° NNE 20:47:20 10° N
Cosmos 2251 Rocket 4.4 20:38:36 10° SW 20:43:48 50° WNW 20:49:03 10° NNE
Cosmos 1703 4.2 20:40:29 10° NNW 20:43:49 48° WNW 20:43:49 48° WNW
IGS 5A 4.2 20:49:02 49° NNW 20:49:02 49° NNW 20:52:08 10° NNW
ERS-1 Rocket 3.2 20:48:38 61° NNE 20:48:38 61° NNE 20:53:03 10° N
Landsat 7 3.9 20:49:40 75° NW 20:49:40 75° NW 20:54:04 10° NNW
CZ-2C R/B 3.7 20:44:44 10° N 20:49:35 41° WNW 20:54:25 10° SW
Cosmos 1656 Rocket 3.8 20:56:22 10° NNW 21:02:01 68° WSW 21:02:04 68° WSW
Aureole 1 Rocket 4.2 21:01:50 46° SSW 21:04:29 84° ESE 21:11:06 10° NNE
COSMOS 2455 3.2 21:09:40 10° NNW 21:15:09 54° NNE 21:15:09 54° NNE
Cosmos 2341 Rocket 4.1 21:16:05 10° NNW 21:22:23 68° W 21:22:43 66° WSW
Cosmos 2369 Rocket 3.9 21:19:36 10° NW 21:23:58 23° W 21:25:04 22° WSW
NOSS 3-4 (A) 3.7 21:23:03 10° NW 21:30:03 80° SW 21:30:09 80° SW
NOSS 3-4 (C) 3.7 21:23:08 10° NW 21:30:09 81° SW 21:30:14 80° SW
Terra 3.1 21:32:46 38° NNW 21:32:46 38° NNW 21:35:42 10° NNW
Cosmos 2218 Rocket 4.3 21:43:20 10° NNW 21:48:36 60° NW 21:48:36 60° NW
USA 234 4.2 21:52:11 10° NE 21:58:16 43° NNW 22:04:21 10° W
ATLAS 2AS CENTAUR R/B 3.4 21:55:22 10° NW 22:01:48 48° W 22:01:48 48° W
Cosmos 1697 Rocket 4.3 22:06:40 10° NNW 22:10:12 28° NNE 22:10:12 28° NNE
Mayak 1.7 22:15:00 10° N 22:15:31 13° N 22:15:31 13° N
Cosmos 1980 Rocket 4.0 22:32:16 10° N 22:35:28 25° NNE 22:35:28 25° NNE
CZ-4C R/B 3.9 22:31:38 10° NNW 22:37:54 36° NE 22:38:44 35° NE
ATLAS 5 CENTAUR R/B 4.5 23:20:05 15° NNE 23:20:05 15° NNE 23:21:09 10° NNE
USA 234 4.4 23:34:32 10° ENE 23:40:26 38° N 23:46:21 10° WNW
SL-16 R/B 4.1 23:52:44 28° NE 23:52:44 28° NE 23:57:36 10° N
